Tracy, MN

7:32 PM CDT on August 25, 2016 (GMT -0500)
Tracy

Weather History for KTKC - January, 2013

Change the Weather History Date:

Thursday, January 17, 2013

  Actual Average (KMML) Record (KMML)
Temperature  
Mean Temperature 14 °F -  
Max Temperature 26 °F 24 °F 48 °F (1974)
Min Temperature 1 °F 3 °F -27 °F (1977)
Degree Days  
Heating Degree Days 52    
Moisture  
Dew Point 9 °F    
Average Humidity 73    
Maximum Humidity 91    
Minimum Humidity 49    
Precipitation  
Precipitation 0.00 in - - ()
Sea Level Pressure  
Sea Level Pressure 30.32 in    
Wind  
Wind Speed 2 mph (NW)    
Max Wind Speed 15 mph    
Max Gust Speed 17 mph    
Visibility 10 miles    
Events      
Averages and records for this station are not official NWS values.
T = Trace of Precipitation, MM = Missing Value Source: NWS Daily Summary

Daily Weather History Graph

Daily Weather History Graph

Search for Another Location

Airport or City:

Trip Planner

Search our weather history database for the weather conditions in past years. The results will help you decide how hot, cold, wet, or windy it might be!

Date:

Astronomy

Jan. 17, 2013 Rise Set
Actual Time 7:53 AM CST 5:12 PM CST
Civil Twilight 7:21 AM CST 5:44 PM CST
Nautical Twilight 6:45 AM CST 6:20 PM CST
Astronomical Twilight 6:11 AM CST 6:54 PM CST
Moon 10:44 AM CST (1/17) No Moon Set
Length of Visible Light 10h 23m
Length of Day
9h 18m
Waxing Crescent, 38% of the Moon is Illuminated
Jan 17
Waxing Crescent
Jan 18
First Quarter
Jan 26
Full
Feb 3
Last Quarter
Feb 10
New

Hourly Weather History & Observations

Time (CST) Temp. Windchill Dew Point Humidity Pressure Visibility Wind Dir Wind Speed Gust Speed Precip Events Conditions
12:18 AM 4.8 °F - -2.9 °F 70% 30.26 in 10.0 mi Calm Calm - N/A   Clear
12:38 AM 4.1 °F -10.2 °F -4.2 °F 69% 30.25 in 10.0 mi NNW 9.2 mph - N/A   Clear
12:58 AM 3.9 °F - -4.5 °F 68% 30.26 in 10.0 mi Calm Calm - N/A   Clear
1:17 AM 3.7 °F - -5.1 °F 67% 30.28 in 10.0 mi Calm Calm - N/A   Clear
1:37 AM 3.6 °F - -4.2 °F 70% 30.30 in 10.0 mi Calm Calm - N/A   Clear
1:58 AM 3.0 °F - -5.3 °F 68% 30.32 in 10.0 mi Calm Calm - N/A   Clear
2:17 AM 2.8 °F - -7.1 °F 63% 30.32 in 10.0 mi Calm Calm - N/A   Clear
2:38 AM 2.3 °F - -6.9 °F 66% 30.33 in 10.0 mi Calm Calm - N/A   Clear
2:58 AM 1.9 °F - -8.5 °F 62% 30.34 in 10.0 mi Calm Calm - N/A   Clear
3:38 AM 3.4 °F - -8.1 °F 59% 30.35 in 10.0 mi Calm Calm - N/A   Mostly Cloudy
3:58 AM 4.1 °F - -8.3 °F 56% 30.34 in 10.0 mi Calm Calm - N/A   Overcast
4:17 AM 5.0 °F - -8.7 °F 53% 30.34 in 10.0 mi Calm Calm - N/A   Overcast
4:38 AM 5.7 °F - -8.7 °F 52% 30.34 in 10.0 mi Calm Calm - N/A   Overcast
4:58 AM 5.9 °F - -7.1 °F 55% 30.35 in 10.0 mi Calm Calm - N/A   Overcast
5:18 AM 6.4 °F - -9.0 °F 49% 30.36 in 10.0 mi Calm Calm - N/A   Overcast
5:38 AM 6.8 °F - -7.4 °F 52% 30.34 in 10.0 mi Calm Calm - N/A   Overcast
5:57 AM 7.2 °F - -6.9 °F 53% 30.35 in 10.0 mi Calm Calm - N/A   Overcast
6:18 AM 7.7 °F - -3.3 °F 61% 30.35 in 10.0 mi Calm Calm - N/A   Overcast
6:38 AM 8.2 °F - -1.8 °F 64% 30.33 in 10.0 mi Calm Calm - N/A   Overcast
6:57 AM 8.8 °F - -1.5 °F 63% 30.32 in 10.0 mi Calm Calm - N/A   Overcast
7:18 AM 9.5 °F - -1.1 °F 62% 30.33 in 10.0 mi Calm Calm - N/A   Overcast
7:38 AM 10.2 °F - -0.4 °F 62% 30.33 in 10.0 mi Calm Calm - N/A   Overcast
7:57 AM 10.9 °F - 0.1 °F 62% 30.33 in 10.0 mi Calm Calm - N/A   Overcast
8:17 AM 11.7 °F - 1.4 °F 63% 30.30 in 10.0 mi Calm Calm - N/A   Mostly Cloudy
8:38 AM 12.9 °F - 2.8 °F 64% 30.31 in 10.0 mi Calm Calm - N/A   Scattered Clouds
8:58 AM 14.4 °F - 4.3 °F 64% 30.32 in 10.0 mi Calm Calm - N/A   Mostly Cloudy
9:17 AM 16.5 °F - 8.1 °F 69% 30.33 in 10.0 mi Calm Calm - N/A   Overcast
9:38 AM 18.7 °F 8.6 °F 11.1 °F 72% 30.35 in 10.0 mi West 8.1 mph - N/A   Scattered Clouds
9:57 AM 20.8 °F 9.7 °F 13.1 °F 72% 30.36 in 10.0 mi West 10.4 mph - N/A   Clear
10:18 AM 22.1 °F 11.3 °F 14.0 °F 71% 30.36 in 10.0 mi West 10.4 mph 17.3 mph N/A   Scattered Clouds
10:38 AM 23.4 °F 12.2 °F 15.6 °F 72% 30.36 in 10.0 mi West 11.5 mph 16.1 mph N/A   Scattered Clouds
10:57 AM 24.6 °F 15.8 °F 17.6 °F 75% 30.37 in 10.0 mi West 8.1 mph - N/A   Mostly Cloudy
11:18 AM 25.7 °F 16.4 °F 18.5 °F 74% 30.37 in 10.0 mi WNW 9.2 mph - N/A   Mostly Cloudy
11:37 AM 26.4 °F 16.6 °F 19.4 °F 75% 30.37 in 10.0 mi WNW 10.4 mph 17.3 mph N/A   Overcast
11:58 AM 26.2 °F 15.2 °F 20.1 °F 78% 30.37 in 10.0 mi WNW 12.7 mph - N/A   Overcast
12:18 PM 26.6 °F 14.7 °F 20.7 °F 78% 30.37 in 10.0 mi NNW 15.0 mph - N/A   Overcast
12:37 PM 26.2 °F 15.8 °F 19.8 °F 76% 30.37 in 10.0 mi NNW 11.5 mph - N/A   Overcast
12:58 PM 26.1 °F 16.2 °F 19.9 °F 78% 30.36 in 10.0 mi NNW 10.4 mph 17.3 mph N/A   Overcast
1:18 PM 26.2 °F 15.8 °F 20.3 °F 78% 30.36 in 10.0 mi NNW 11.5 mph - N/A   Overcast
1:38 PM 26.1 °F 16.8 °F 20.1 °F 78% 30.35 in 10.0 mi NNW 9.2 mph - N/A   Overcast
1:57 PM 26.1 °F 17.6 °F 18.9 °F 74% 30.34 in 10.0 mi NNW 8.1 mph - N/A   Overcast
2:18 PM 25.5 °F 17.8 °F 18.3 °F 74% 30.34 in 10.0 mi North 6.9 mph - N/A   Overcast
2:38 PM 25.5 °F - 18.7 °F 75% 30.35 in 10.0 mi Calm Calm - N/A   Overcast
2:57 PM 25.7 °F 18.0 °F 19.2 °F 76% 30.35 in 10.0 mi North 6.9 mph - N/A   Overcast
3:17 PM 26.1 °F - 19.2 °F 75% 30.34 in 10.0 mi Calm Calm - N/A   Overcast
3:38 PM 25.3 °F 19.7 °F 19.0 °F 77% 30.35 in 10.0 mi NNE 4.6 mph - N/A   Overcast
3:57 PM 24.6 °F 17.7 °F 18.7 °F 78% 30.35 in 10.0 mi North 5.8 mph - N/A   Overcast
4:18 PM 24.3 °F - 18.5 °F 79% 30.34 in 10.0 mi Calm Calm - N/A   Overcast
4:38 PM 23.5 °F - 18.0 °F 79% 30.35 in 10.0 mi Calm Calm - N/A   Overcast
4:57 PM 23.2 °F - 18.1 °F 81% 30.35 in 10.0 mi Calm Calm - N/A   Overcast
5:18 PM 23.0 °F - 17.8 °F 80% 30.35 in 10.0 mi Calm Calm - N/A   Overcast
5:38 PM 23.0 °F - 18.1 °F 82% 30.35 in 10.0 mi Calm Calm - N/A   Overcast
5:58 PM 22.6 °F - 17.6 °F 81% 30.35 in 10.0 mi Calm Calm - N/A   Overcast
6:18 PM 22.1 °F - 17.8 °F 83% 30.34 in 10.0 mi Calm Calm - N/A   Overcast
6:37 PM 21.9 °F - 17.6 °F 83% 30.33 in 10.0 mi Calm Calm - N/A   Overcast
6:58 PM 21.7 °F - 17.4 °F 83% 30.34 in 10.0 mi Calm Calm - N/A   Overcast
7:18 PM 21.2 °F - 17.1 °F 84% 30.33 in 10.0 mi Calm Calm - N/A   Overcast
7:58 PM 21.2 °F - 17.4 °F 85% 30.32 in 10.0 mi Calm Calm - N/A   Overcast
8:18 PM 21.2 °F - 17.4 °F 85% 30.31 in 10.0 mi Calm Calm - N/A   Overcast
8:58 PM 19.9 °F - 17.4 °F 90% 30.28 in 10.0 mi Calm Calm - N/A   Overcast
9:18 PM 20.1 °F - 17.6 °F 90% 30.26 in 10.0 mi Calm Calm - N/A   Mostly Cloudy
9:57 PM 20.3 °F - 18.1 °F 91% 30.26 in 10.0 mi Calm Calm - N/A   Clear
10:18 PM 20.7 °F - 18.5 °F 91% 30.24 in 10.0 mi Calm Calm - N/A   Mostly Cloudy
10:38 PM 21.2 °F 13.6 °F 18.9 °F 91% 30.23 in 10.0 mi ESE 5.8 mph - N/A   Overcast
10:57 PM 21.2 °F - 18.9 °F 91% 30.21 in 10.0 mi Calm Calm - N/A   Mostly Cloudy
11:17 PM 21.2 °F - 19.0 °F 91% 30.21 in 10.0 mi Calm Calm - N/A   Scattered Clouds
11:38 PM 22.1 °F - 19.4 °F 89% 30.18 in 10.0 mi Calm Calm - N/A   Mostly Cloudy
11:58 PM 23.0 °F - 20.1 °F 89% 30.16 in 10.0 mi Calm Calm - N/A   Mostly Cloudy